Total_Precipitation_Accumulation
1.07 1.12 1.10 1.16 1.27 1.53 1.73 1.67 1.49 1.47 1.49 1.45 1.40 1.48 1.62 1.73 1.84 1.97 2.04 2.06 2.09 2.22 2.16 2.12 2.19 2.30 2.55 2.51 2.56 2.55 2.45 2.37 2.33 2.11 1.74 1.74 1.98 2.08 1.99 1.79 1.63 1.62 1.45
0.91 0.95 1.01 1.03 1.12 1.24 1.35 1.36 1.29 1.20 1.17 1.23 1.28 1.28 1.36 1.53 1.65 1.69 1.71 1.74 1.81 1.93 1.99 1.94 1.96 2.04 2.16 2.37 2.48 2.47 2.48 2.42 2.41 2.36 2.02 1.83 1.79 1.92 2.01 1.97 1.72 1.58 1.49
0.85 0.94 1.01 0.99 0.99 1.00 1.01 0.95 0.99 0.99 1.04 1.09 1.21 1.25 1.32 1.40 1.56 1.57 1.56 1.52 1.56 1.62 1.76 1.83 1.88 1.91 1.94 2.07 2.05 2.13 2.27 2.42 2.51 2.43 2.27 2.06 1.89 1.87 1.96 1.92 1.85 1.88 1.63
0.94 1.02 1.08 1.08 1.06 1.04 1.02 0.97 0.98 0.98 1.01 1.12 1.30 1.36 1.37 1.39 1.39 1.44 1.51 1.47 1.37 1.33 1.39 1.43 1.56 1.69 1.73 1.91 1.88 1.89 2.05 2.29 2.56 2.58 2.45 2.21 2.06 2.01 1.98 1.94 1.99 1.97 1.87
0.83 0.95 1.01 1.07 1.11 1.04 0.94 0.90 0.94 0.91 0.89 1.03 1.19 1.34 1.38 1.37 1.34 1.41 1.48 1.51 1.44 1.28 1.23 1.24 1.29 1.42 1.69 1.80 1.76 1.97 2.12 2.17 2.32 2.45 2.45 2.38 2.22 2.05 1.92 1.83 1.90 1.96 1.98
0.73 0.84 1.03 1.10 1.02 0.94 0.84 0.84 0.85 0.82 0.81 0.89 1.03 1.20 1.30 1.28 1.68 1.67 1.48 1.47 1.43 1.29 1.19 1.17 1.14 1.14 1.35 1.65 1.80 1.93 2.06 2.15 2.20 2.23 2.27 2.21 2.15 2.09 2.14 2.09 1.97 1.91 1.88
0.66 0.82 1.01 1.01 0.92 0.87 0.88 0.90 0.85 0.82 0.82 0.87 0.92 0.93 1.02 1.31 1.38 1.16 1.19 1.23 1.34 1.25 1.12 1.05 0.96 0.95 1.11 1.20 1.36 1.48 1.68 1.99 2.20 2.24 2.12 1.98 2.06 2.04 2.08 2.12 2.02 1.95 1.85
0.56 0.68 0.85 0.86 0.84 0.89 0.89 0.84 0.78 0.72 0.70 0.73 0.77 0.81 0.87 1.00 1.02 0.97 1.07 1.01 1.15 1.15 1.05 1.00 0.99 0.98 1.03 1.08 1.22 1.36 1.38 1.47 1.71 1.77 1.79 1.81 1.87 2.02 2.08 2.11 2.18 2.11 2.08
0.43 0.54 0.66 0.68 0.73 0.75 0.72 0.74 0.71 0.66 0.65 0.65 0.69 0.77 0.85 0.84 0.87 0.86 0.93 1.04 1.19 1.15 1.03 1.02 0.99 0.97 1.15 1.22 1.21 1.30 1.39 1.37 1.49 1.67 1.88 1.87 1.78 1.79 1.90 1.95 2.08 2.11 2.10
0.34 0.44 0.55 0.59 0.60 0.62 0.67 0.70 0.70 0.66 0.64 0.64 0.66 0.67 0.73 0.77 0.91 0.78 0.88 1.07 1.19 1.21 1.18 1.07 1.17 1.15 1.25 1.23 1.18 1.33 1.39 1.24 1.17 1.27 1.43 1.48 1.40 1.42 1.62 1.64 1.85 2.00 1.92
0.26 0.35 0.42 0.49 0.55 0.64 0.72 0.73 0.75 0.72 0.68 0.66 0.71 0.71 0.67 0.76 0.91 0.89 0.92 0.98 1.18 1.24 1.27 1.20 1.06 1.12 1.10 1.16 1.23 1.31 1.50 1.35 1.21 1.27 1.39 1.37 1.25 1.24 1.31 1.39 1.53 1.81 1.87
0.20 0.26 0.37 0.46 0.54 0.64 0.76 0.81 0.78 0.76 0.75 0.75 0.75 0.76 0.73 0.72 0.79 0.85 0.89 0.96 1.07 1.11 1.20 1.17 1.10 1.14 0.99 0.99 1.03 1.16 1.45 1.37 1.22 1.25 1.30 1.31 1.25 1.17 1.21 1.24 1.32 1.44 1.58
0.17 0.22 0.29 0.34 0.37 0.47 0.58 0.70 0.75 0.74 0.72 0.73 0.78 0.85 0.86 0.79 0.84 0.95 0.83 0.83 0.91 0.93 0.96 1.07 1.03 1.00 0.92 0.85 0.93 1.05 1.17 1.30 1.31 1.25 1.18 1.16 1.16 1.15 1.20 1.18 1.18 1.26 1.29
0.18 0.22 0.23 0.26 0.27 0.31 0.45 0.52 0.56 0.62 0.66 0.73 0.80 0.89 0.98 0.94 0.85 0.82 0.77 0.77 0.81 0.77 0.72 0.72 0.73 0.77 0.77 0.76 0.81 0.87 0.99 1.19 1.32 1.25 1.12 1.13 1.14 1.15 1.17 1.11 1.11 1.18 1.21
0.18 0.19 0.20 0.22 0.24 0.27 0.34 0.44 0.50 0.55 0.59 0.63 0.72 0.86 0.93 0.94 0.95 1.03 1.01 0.94 0.91 0.89 0.84 0.74 0.68 0.70 0.78 0.84 0.84 0.83 0.90 1.03 1.14 1.14 1.08 1.05 1.08 1.12 1.12 1.06 1.03 1.07 1.12
0.22 0.20 0.19 0.20 0.24 0.26 0.30 0.36 0.39 0.42 0.44 0.46 0.51 0.57 0.65 0.71 0.77 0.77 0.81 0.84 0.81 0.79 0.89 0.91 0.88 0.90 0.90 0.88 0.89 0.84 0.81 0.85 0.98 1.06 1.06 1.01 0.98 1.03 1.08 1.07 1.05 1.07 1.09
0.31 0.28 0.25 0.23 0.26 0.30 0.30 0.31 0.36 0.37 0.37 0.38 0.41 0.48 0.56 0.61 0.60 0.60 0.63 0.69 0.72 0.73 0.85 0.87 0.81 0.76 0.75 0.72 0.74 0.75 0.75 0.75 0.79 0.90 0.96 0.98 0.95 0.98 1.07 1.11 1.11 1.14 1.15
0.21 0.23 0.26 0.29 0.27 0.29 0.35 0.42 0.47 0.52 0.47 0.39 0.38 0.43 0.46 0.50 0.51 0.53 0.57 0.59 0.55 0.55 0.60 0.68 0.65 0.61 0.59 0.60 0.60 0.58 0.61 0.65 0.68 0.73 0.82 0.87 0.93 0.97 1.02 1.08 1.12 1.11 1.12
0.19 0.22 0.30 0.33 0.31 0.31 0.39 0.49 0.54 0.55 0.53 0.44 0.35 0.32 0.35 0.37 0.42 0.46 0.49 0.50 0.49 0.43 0.44 0.51 0.54 0.54 0.52 0.48 0.46 0.46 0.48 0.49 0.53 0.60 0.68 0.74 0.80 0.86 0.91 0.97 1.02 1.08 1.08
0.24 0.29 0.36 0.41 0.37 0.38 0.42 0.42 0.40 0.43 0.43 0.39 0.36 0.35 0.35 0.34 0.34 0.38 0.40 0.41 0.43 0.40 0.41 0.45 0.47 0.47 0.46 0.45 0.43 0.41 0.43 0.46 0.48 0.53 0.60 0.69 0.74 0.76 0.76 0.81 0.90 0.96 0.95
0.32 0.32 0.34 0.41 0.42 0.40 0.39 0.37 0.38 0.40 0.37 0.36 0.36 0.36 0.37 0.35 0.34 0.35 0.36 0.36 0.37 0.40 0.40 0.40 0.42 0.47 0.46 0.43 0.43 0.44 0.44 0.45 0.45 0.50 0.54 0.58 0.62 0.66 0.69 0.71 0.74 0.80 0.86
0.32 0.34 0.33 0.40 0.43 0.37 0.34 0.35 0.39 0.41 0.39 0.36 0.35 0.36 0.37 0.34 0.34 0.35 0.36 0.39 0.40 0.42 0.43 0.40 0.42 0.46 0.50 0.48 0.46 0.47 0.49 0.49 0.48 0.50 0.54 0.55 0.57 0.59 0.63 0.64 0.66 0.70 0.74
0.33 0.33 0.33 0.36 0.37 0.35 0.33 0.36 0.40 0.42 0.40 0.37 0.36 0.36 0.35 0.34 0.33 0.35 0.40 0.47 0.51 0.49 0.45 0.42 0.44 0.49 0.52 0.53 0.51 0.52 0.51 0.50 0.50 0.51 0.55 0.58 0.60 0.63 0.66 0.67 0.68 0.73 0.77
0.38 0.39 0.40 0.41 0.39 0.40 0.43 0.42 0.40 0.41 0.43 0.42 0.40 0.39 0.38 0.34 0.34 0.36 0.41 0.48 0.51 0.50 0.48 0.45 0.45 0.48 0.53 0.56 0.57 0.55 0.52 0.51 0.49 0.49 0.53 0.57 0.59 0.61 0.64 0.67 0.71 0.73 0.79
0.39 0.41 0.43 0.45 0.44 0.44 0.47 0.45 0.42 0.42 0.45 0.48 0.49 0.44 0.42 0.39 0.37 0.37 0.39 0.45 0.47 0.45 0.45 0.46 0.50 0.53 0.55 0.53 0.53 0.56 0.66 0.66 0.58 0.54 0.53 0.57 0.61 0.63 0.66 0.71 0.75 0.78 0.83
0.39 0.41 0.45 0.50 0.50 0.49 0.49 0.50 0.48 0.46 0.49 0.51 0.55 0.56 0.53 0.47 0.43 0.42 0.43 0.47 0.47 0.46 0.46 0.48 0.49 0.51 0.53 0.53 0.50 0.53 0.59 0.57 0.56 0.58 0.56 0.57 0.63 0.68 0.73 0.77 0.80 0.85 0.92